Retour au catalogue

STARLINK-31307

ActifCommunicationsVLEO
NORAD 59089·PAYLOAD·🇺🇸 United States

Lancé Feb 29, 2024 depuis Cape Canaveral Space Force Station

Loading…

Prochains Passages (prochaines 24 heures)

TLE

FraisSource: CelesTrak SupGP

Époque: Sep 15, 2026, 02:35 UTC

1 59089C 24041R   26258.10812500  .00047288  00000+0  17126-2 0  2587
2 59089  43.0019 320.7992 0001499 262.3566  62.1726 15.27558309    15

Suivez STARLINK-31307 en temps réel avec AllMySat

Download on the App Store